,,,PA_Meas_PMT16A,,PR_Meas_QMR101_102,,RH_Meas_QMH101,,SR_Meas_QMS101,,TA_Meas_QMH101,,GenWind,,GenWind,
date,time,status,PA,status,PR,status,RH,status,SR,status,TA,status,DirAvg,status,SpdAvg,
2010-04-14, 00:00:04,VALID,1001.35,VALID,0,VALID,90.0295,VALID,0,VALID,25.0655,VALID,325,VALID,0,
2010-04-14, 00:01:04,VALID,1001.32,VALID,0,VALID,89.9761,VALID,0,VALID,25.0655,VALID,352,VALID,0,
2010-04-14, 00:02:04,VALID,1001.32,VALID,0,VALID,90.06,VALID,0,VALID,25.0655,VALID,353,VALID,0.596484,
2010-04-14, 00:03:04,VALID,1001.34,VALID,0,VALID,90.2889,VALID,0,VALID,25.0674,VALID,353,VALID,0.457812,
2010-04-14, 00:04:04,VALID,1001.3,VALID,0,VALID,90.5254,VALID,0,VALID,25.0069,VALID,353,VALID,0,
2010-04-14, 00:05:04,VALID,1001.25,VALID,0,VALID,90.6933,VALID,0,VALID,24.9874,VALID,353,VALID,0,
2010-04-14, 00:06:04,VALID,1001.27,VALID,0,VALID,90.8077,VALID,0,VALID,24.9893,VALID,353,VALID,0,
2010-04-14, 00:07:04,VALID,1001.26,VALID,0,VALID,90.9222,VALID,0,VALID,24.9893,VALID,353,VALID,0,
2010-04-14, 00:08:04,VALID,1001.24,VALID,0,VALID,90.968,VALID,0,VALID,24.9698,VALID,353,VALID,0,
2010-04-14, 00:09:04,VALID,1001.18,VALID,0,VALID,91.029,VALID,0,VALID,24.9289,VALID,353,VALID,0,
2010-04-14, 00:10:04,VALID,1001.17,VALID,0,VALID,91.0061,VALID,0,VALID,24.9308,VALID,353,VALID,0,
2010-04-14, 00:11:04,VALID,1001.19,VALID,0,VALID,91.0137,VALID,0,VALID,24.8898,VALID,37,VALID,0,
2010-04-14, 00:12:04,VALID,1001.18,VALID,0,VALID,90.9909,VALID,0,VALID,24.9112,VALID,47,VALID,0,
2010-04-14, 00:13:04,VALID,1001.16,VALID,0,VALID,90.9756,VALID,0,VALID,24.8898,VALID,47,VALID,0.826172,
2010-04-14, 00:14:04,VALID,1001.14,VALID,0,VALID,91.0061,VALID,0,VALID,24.9093,VALID,47,VALID,1.16016,
2010-04-14, 00:15:04,VALID,1001.12,VALID,0,VALID,90.884,VALID,0,VALID,24.9308,VALID,47,VALID,1.42148,
2010-04-14, 00:16:04,VALID,1001.11,VALID,0,VALID,90.9146,VALID,0,VALID,24.9093,VALID,48,VALID,1.22344,
2010-04-14, 00:17:04,VALID,1001.15,VALID,0,VALID,90.9756,VALID,0,VALID,24.9289,VALID,53,VALID,1.17617,
2010-04-14, 00:18:04,VALID,1001.16,VALID,0,VALID,91.1358,VALID,0,VALID,24.9484,VALID,58,VALID,1.33398,
2010-04-14, 00:19:04,VALID,1001.16,VALID,0,VALID,91.2884,VALID,0,VALID,24.9893,VALID,54,VALID,1.28398,
2010-04-14, 00:20:04,VALID,1001.14,VALID,0,VALID,91.4563,VALID,0,VALID,25.0069,VALID,52,VALID,1.07461,
2010-04-14, 00:21:04,VALID,1001.12,VALID,0,VALID,91.5554,VALID,0,VALID,25.0265,VALID,43,VALID,1.06211,
2010-04-14, 00:22:04,VALID,1001.12,VALID,0,VALID,91.5402,VALID,0,VALID,25.0265,VALID,38,VALID,1.02734,
2010-04-14, 00:23:04,VALID,1001.15,VALID,0,VALID,91.6088,VALID,0,VALID,25.0265,VALID,43,VALID,1.13945,
2010-04-14, 00:24:04,VALID,1001.13,VALID,0,VALID,91.5554,VALID,0,VALID,25.0265,VALID,23,VALID,1.1375,
2010-04-14, 00:25:04,VALID,1001.12,VALID,0,VALID,91.4181,VALID,0,VALID,25.0265,VALID,359,VALID,1.53594,
2010-04-14, 00:26:04,VALID,1001.11,VALID,0,VALID,91.3266,VALID,0,VALID,25.0069,VALID,340,VALID,1.04766,
2010-04-14, 00:27:04,VALID,1001.06,VALID,0,VALID,91.0366,VALID,0,VALID,25.0069,VALID,356,VALID,1.51289,
2010-04-14, 00:28:04,VALID,1001.05,VALID,0,VALID,90.884,VALID,0,VALID,24.9874,VALID,339,VALID,0.614453,
2010-04-14, 00:29:04,VALID,1001.04,VALID,0,VALID,90.8001,VALID,0,VALID,24.9874,VALID,326,VALID,0,
2010-04-14, 00:30:04,VALID,1001.02,VALID,0,VALID,90.7467,VALID,0,VALID,25.0069,VALID,326,VALID,0,
2010-04-14, 00:31:04,VALID,1000.99,VALID,0,VALID,90.6933,VALID,0,VALID,25.0069,VALID,326,VALID,0,
2010-04-14, 00:32:04,VALID,1000.96,VALID,0,VALID,90.7009,VALID,0,VALID,25.0088,VALID,326,VALID,0,
2010-04-14, 00:33:04,VALID,1000.98,VALID,0,VALID,90.6704,VALID,0,VALID,24.9874,VALID,326,VALID,0,
2010-04-14, 00:34:04,VALID,1000.95,VALID,0,VALID,90.6628,VALID,0,VALID,24.9679,VALID,326,VALID,0,
2010-04-14, 00:35:04,VALID,1000.91,VALID,0,VALID,90.6628,VALID,0,VALID,24.9679,VALID,63,VALID,0,
2010-04-14, 00:36:04,VALID,1000.91,VALID,0,VALID,90.7314,VALID,0,VALID,24.9679,VALID,72,VALID,0,
2010-04-14, 00:37:04,VALID,1000.88,VALID,0,VALID,90.7696,VALID,0,VALID,24.9484,VALID,72,VALID,0,
2010-04-14, 00:38:04,VALID,1000.88,VALID,0,VALID,90.9527,VALID,0,VALID,24.9484,VALID,97,VALID,0.769922,
2010-04-14, 00:39:04,VALID,1000.85,VALID,0,VALID,91.029,VALID,0,VALID,24.9698,VALID,97,VALID,0.348828,
2010-04-14, 00:40:04,VALID,1000.85,VALID,0,VALID,91.0443,VALID,0,VALID,24.9484,VALID,78,VALID,0,
2010-04-14, 00:41:04,VALID,1000.87,VALID,0,VALID,90.9985,VALID,0,VALID,24.9484,VALID,52,VALID,0,
2010-04-14, 00:42:04,VALID,1000.86,VALID,0,VALID,90.9527,VALID,0,VALID,24.9484,VALID,50,VALID,0,
2010-04-14, 00:43:04,VALID,1000.84,VALID,0,VALID,90.8917,VALID,0,VALID,24.9484,VALID,50,VALID,0,
2010-04-14, 00:44:04,VALID,1000.87,VALID,0,VALID,90.8459,VALID,0,VALID,24.9893,VALID,50,VALID,0,
2010-04-14, 00:45:04,VALID,1000.85,VALID,0,VALID,90.7772,VALID,0,VALID,24.9679,VALID,51,VALID,0,
2010-04-14, 00:46:04,VALID,1000.85,VALID,0,VALID,90.9146,VALID,0,VALID,24.9874,VALID,66,VALID,0,
2010-04-14, 00:47:04,VALID,1000.84,VALID,0,VALID,90.9146,VALID,0,VALID,25.0479,VALID,102,VALID,0,
2010-04-14, 00:48:04,VALID,1000.81,VALID,0,VALID,90.9298,VALID,0,VALID,25.0674,VALID,108,VALID,1.2,
2010-04-14, 00:49:04,VALID,1000.75,VALID,0,VALID,90.9374,VALID,0,VALID,25.046,VALID,117,VALID,0.825781,
2010-04-14, 00:50:04,VALID,1000.72,VALID,0,VALID,90.9603,VALID,0,VALID,25.0655,VALID,126,VALID,1.05703,
2010-04-14, 00:51:04,VALID,1000.64,VALID,0,VALID,90.9756,VALID,0,VALID,25.0655,VALID,133,VALID,0.995313,
2010-04-14, 00:52:04,VALID,1000.62,VALID,0,VALID,90.8764,VALID,0,VALID,25.085,VALID,138,VALID,1.575,
2010-04-14, 00:53:04,VALID,1000.61,VALID,0,VALID,90.7162,VALID,0,VALID,25.0655,VALID,134,VALID,1.55742,
2010-04-14, 00:54:04,VALID,1000.56,VALID,0,VALID,90.5178,VALID,0,VALID,25.1064,VALID,132,VALID,0.93125,
2010-04-14, 00:55:04,VALID,1000.53,VALID,0,VALID,90.0753,VALID,0,VALID,25.085,VALID,115,VALID,0.861328,
2010-04-14, 00:56:04,VALID,1000.51,VALID,0,VALID,89.8922,VALID,0,VALID,25.1241,VALID,125,VALID,1.43906,
2010-04-14, 00:57:04,VALID,1000.51,VALID,0,VALID,89.0224,VALID,0,VALID,25.1455,VALID,102,VALID,2.03945,
2010-04-14, 00:58:04,VALID,1000.53,VALID,0,VALID,88.5036,VALID,0,VALID,25.2217,VALID,117,VALID,1.95156,
2010-04-14, 00:59:04,VALID,1000.51,VALID,0,VALID,87.9161,VALID,0,VALID,25.3212,VALID,115,VALID,1.75156,
2010-04-14, 01:00:04,VALID,1000.51,VALID,0,VALID,87.672,VALID,0,VALID,25.3388,VALID,110,VALID,1.43906,
2010-04-14, 01:01:04,VALID,1000.5,VALID,0,VALID,87.3973,VALID,0,VALID,25.3583,VALID,114,VALID,2.17539,
2010-04-14, 01:02:04,VALID,1000.47,VALID,0,VALID,87.1684,VALID,0,VALID,25.3973,VALID,116,VALID,2.36328,
2010-04-14, 01:03:04,VALID,1000.45,VALID,0,VALID,86.8022,VALID,0,VALID,25.4364,VALID,121,VALID,2.00234,
2010-04-14, 01:04:04,VALID,1000.44,VALID,0,VALID,86.703,VALID,0,VALID,25.4559,VALID,116,VALID,1.4668,
2010-04-14, 01:05:04,VALID,1000.45,VALID,0,VALID,86.9624,VALID,0,VALID,25.4559,VALID,99,VALID,1.77227,
2010-04-14, 01:06:04,VALID,1000.43,VALID,0,VALID,87.1608,VALID,0,VALID,25.4364,VALID,113,VALID,1.21836,
2010-04-14, 01:07:04,VALID,1000.41,VALID,0,VALID,87.3057,VALID,0,VALID,25.3973,VALID,103,VALID,1.19375,
2010-04-14, 01:08:04,VALID,1000.37,VALID,0,VALID,86.6191,VALID,0,VALID,25.3797,VALID,83,VALID,2.30547,
2010-04-14, 01:09:04,VALID,1000.37,VALID,0,VALID,86.2376,VALID,0,VALID,25.4188,VALID,72,VALID,2.65313,
2010-04-14, 01:10:04,VALID,1000.34,VALID,0,VALID,86.0621,VALID,0,VALID,25.4364,VALID,78,VALID,2.3625,
2010-04-14, 01:11:04,VALID,1000.32,VALID,0,VALID,85.8409,VALID,0,VALID,25.4969,VALID,47,VALID,1.48789,
2010-04-14, 01:12:04,VALID,1000.32,VALID,0,VALID,85.8332,VALID,0,VALID,25.4754,VALID,45,VALID,1.59492,
2010-04-14, 01:13:04,VALID,1000.31,VALID,0,VALID,85.6043,VALID,0,VALID,25.4754,VALID,66,VALID,2.59805,
2010-04-14, 01:14:04,VALID,1000.33,VALID,0,VALID,85.673,VALID,0,VALID,25.4949,VALID,55,VALID,1.94961,
2010-04-14, 01:15:04,VALID,1000.29,VALID,0,VALID,85.818,VALID,0,VALID,25.4949,VALID,50,VALID,1.78594,
2010-04-14, 01:16:04,VALID,1000.32,VALID,0,VALID,86.1232,VALID,0,VALID,25.4774,VALID,46,VALID,1.71836,
2010-04-14, 01:17:04,VALID,1000.35,VALID,0,VALID,86.1766,VALID,0,VALID,25.4169,VALID,70,VALID,1.70273,
2010-04-14, 01:18:04,VALID,1000.38,VALID,0,VALID,86.1003,VALID,0,VALID,25.3973,VALID,52,VALID,1.79414,
2010-04-14, 01:19:04,VALID,1000.44,VALID,0,VALID,86.1155,VALID,0,VALID,25.4169,VALID,58,VALID,1.55117,
2010-04-14, 01:20:04,VALID,1000.49,VALID,0,VALID,85.7722,VALID,0,VALID,25.3973,VALID,60,VALID,1.33398,
2010-04-14, 01:21:04,VALID,1000.5,VALID,0,VALID,85.4746,VALID,0,VALID,25.4578,VALID,86,VALID,0.701953,
2010-04-14, 01:22:04,VALID,1000.52,VALID,0,VALID,84.91,VALID,0,VALID,25.4754,VALID,61,VALID,0.497656,
2010-04-14, 01:23:04,VALID,1000.52,VALID,0,VALID,84.8872,VALID,0,VALID,25.5145,VALID,61,VALID,0.257813,
2010-04-14, 01:24:04,VALID,1000.51,VALID,0,VALID,84.994,VALID,0,VALID,25.534,VALID,61,VALID,0,
2010-04-14, 01:25:04,VALID,1000.51,VALID,0,VALID,84.9329,VALID,0,VALID,25.4949,VALID,62,VALID,0,
2010-04-14, 01:26:04,VALID,1000.5,VALID,0,VALID,85.0169,VALID,0,VALID,25.5164,VALID,54,VALID,0.0765625,
2010-04-14, 01:27:04,VALID,1000.48,VALID,0,VALID,84.7269,VALID,0,VALID,25.4559,VALID,34,VALID,0.932031,
2010-04-14, 01:28:04,VALID,1000.49,VALID,0,VALID,84.5286,VALID,0,VALID,25.4578,VALID,5,VALID,0.339453,
2010-04-14, 01:29:04,VALID,1000.45,VALID,0,VALID,83.6969,VALID,0,VALID,25.4578,VALID,42,VALID,0.371094,
2010-04-14, 01:30:04,VALID,1000.48,VALID,0,VALID,83.819,VALID,0,VALID,25.4754,VALID,105,VALID,1.03906,
2010-04-14, 01:31:04,VALID,1000.5,VALID,0,VALID,82.7738,VALID,0,VALID,25.4969,VALID,95,VALID,0.911719,
2010-04-14, 01:32:04,VALID,1000.49,VALID,0,VALID,81.8353,VALID,0,VALID,25.4949,VALID,72,VALID,1.18906,
2010-04-14, 01:33:04,VALID,1000.47,VALID,0,VALID,83.14,VALID,0,VALID,25.534,VALID,100,VALID,1.03828,
2010-04-14, 01:34:04,VALID,1000.47,VALID,0,VALID,83.6283,VALID,0,VALID,25.534,VALID,123,VALID,0.473828,
2010-04-14, 01:35:04,VALID,1000.45,VALID,0,VALID,83.8266,VALID,0,VALID,25.4949,VALID,126,VALID,0,
2010-04-14, 01:36:04,VALID,1000.47,VALID,0,VALID,83.3536,VALID,0,VALID,25.4754,VALID,126,VALID,0.00351562,
2010-04-14, 01:37:04,VALID,1000.48,VALID,0,VALID,83.4299,VALID,0,VALID,25.4754,VALID,126,VALID,0.0777344,
2010-04-14, 01:38:04,VALID,1000.5,VALID,0,VALID,82.2092,VALID,0.112286,VALID,25.4559,VALID,84,VALID,1.31406,
2010-04-14, 01:39:04,VALID,1000.56,VALID,0,VALID,81.8048,VALID,0,VALID,25.4559,VALID,56,VALID,1.16484,
2010-04-14, 01:40:04,VALID,1000.59,VALID,0,VALID,81.7514,VALID,0,VALID,25.4559,VALID,64,VALID,1.7875,
2010-04-14, 01:41:04,VALID,1000.63,VALID,0,VALID,81.5759,VALID,0,VALID,25.4578,VALID,78,VALID,1.39023,
2010-04-14, 01:42:04,VALID,1000.67,VALID,0,VALID,82.0032,VALID,0,VALID,25.4578,VALID,88,VALID,1.83164,
2010-04-14, 01:43:04,VALID,1000.63,VALID,0,VALID,81.347,VALID,0,VALID,25.4578,VALID,76,VALID,2.51523,
2010-04-14, 01:44:04,VALID,1000.57,VALID,0,VALID,81.5912,VALID,0,VALID,25.4559,VALID,88,VALID,2.12383,
2010-04-14, 01:45:04,VALID,1000.57,VALID,0,VALID,81.5454,VALID,0,VALID,25.3973,VALID,68,VALID,2.64023,
2010-04-14, 01:46:04,VALID,1000.51,VALID,0,VALID,81.7819,VALID,0,VALID,25.3778,VALID,65,VALID,2.36719,
2010-04-14, 01:47:04,VALID,1000.46,VALID,0,VALID,82.2244,VALID,0,VALID,25.3583,VALID,74,VALID,1.75,
2010-04-14, 01:48:04,VALID,1000.38,VALID,0,VALID,82.3007,VALID,0,VALID,25.3193,VALID,57,VALID,1.4418,
2010-04-14, 01:49:04,VALID,1000.34,VALID,0,VALID,82.4152,VALID,0,VALID,25.2802,VALID,60,VALID,1.5375,
2010-04-14, 01:50:04,VALID,1000.29,VALID,0,VALID,82.2931,VALID,0,VALID,25.2217,VALID,60,VALID,2.1543,
2010-04-14, 01:51:04,VALID,1000.26,VALID,0,VALID,82.4228,VALID,0,VALID,25.2217,VALID,40,VALID,1.57891,
2010-04-14, 01:52:04,VALID,1000.26,VALID,0,VALID,82.3923,VALID,0,VALID,25.2021,VALID,54,VALID,2.51914,
2010-04-14, 01:53:04,VALID,1000.27,VALID,0,VALID,82.4762,VALID,0,VALID,25.2217,VALID,56,VALID,2.23789,
2010-04-14, 01:54:04,VALID,1000.29,VALID,0,VALID,82.6593,VALID,0,VALID,25.2217,VALID,59,VALID,2.09609,
2010-04-14, 01:55:04,VALID,1000.34,VALID,0,VALID,83.201,VALID,0,VALID,25.1826,VALID,75,VALID,1.85078,
2010-04-14, 01:56:04,VALID,1000.31,VALID,0,VALID,83.4604,VALID,0,VALID,25.1436,VALID,80,VALID,2.09414,
2010-04-14, 01:57:04,VALID,1000.3,VALID,0,VALID,83.6359,VALID,0,VALID,25.1241,VALID,82,VALID,1.57227,
2010-04-14, 01:58:04,VALID,1000.31,VALID,0,VALID,83.8419,VALID,0,VALID,25.0655,VALID,80,VALID,1.59531,
2010-04-14, 01:59:04,VALID,1000.28,VALID,0,VALID,83.9258,VALID,0,VALID,25.0265,VALID,82,VALID,1.66445,
2010-04-14, 02:00:04,VALID,1000.26,VALID,0,VALID,83.6664,VALID,0,VALID,25.0284,VALID,81,VALID,1.8668,
2010-04-14, 02:01:04,VALID,1000.23,VALID,0,VALID,83.6969,VALID,0,VALID,25.0265,VALID,95,VALID,1.37031,
2010-04-14, 02:02:04,VALID,1000.17,VALID,0,VALID,83.7427,VALID,0,VALID,25.0069,VALID,100,VALID,1.10742,
2010-04-14, 02:03:04,VALID,1000.15,VALID,0,VALID,83.3155,VALID,0,VALID,25.0265,VALID,65,VALID,2.00117,
2010-04-14, 02:04:04,VALID,1000.13,VALID,0,VALID,83.346,VALID,0,VALID,25.0655,VALID,64,VALID,1.43398,
2010-04-14, 02:05:04,VALID,1000.11,VALID,0,VALID,83.4757,VALID,0,VALID,25.0655,VALID,75,VALID,0.917969,
2010-04-14, 02:06:04,VALID,1000.04,VALID,0,VALID,82.8348,VALID,0,VALID,25.0655,VALID,95,VALID,2.45117,
2010-04-14, 02:07:04,VALID,1000.07,VALID,0,VALID,82.3312,VALID,0,VALID,25.1826,VALID,43,VALID,2.38633,
2010-04-14, 02:08:04,VALID,1000.11,VALID,0,VALID,82.5296,VALID,0,VALID,25.2021,VALID,76,VALID,1.63086,
2010-04-14, 02:09:04,VALID,1000.1,VALID,0,VALID,82.7051,VALID,0,VALID,25.1826,VALID,91,VALID,1.03984,
2010-04-14, 02:10:04,VALID,1000.11,VALID,0,VALID,82.85,VALID,0,VALID,25.1631,VALID,91,VALID,0.877344,
2010-04-14, 02:11:04,VALID,1000.08,VALID,0,VALID,82.9035,VALID,0,VALID,25.1436,VALID,91,VALID,0.355859,
2010-04-14, 02:12:04,VALID,1000.09,VALID,0,VALID,82.7127,VALID,0,VALID,25.1436,VALID,67,VALID,1.00117,
2010-04-14, 02:13:04,VALID,1000.11,VALID,0,VALID,82.6593,VALID,0,VALID,25.1436,VALID,69,VALID,1.38672,
2010-04-14, 02:14:04,VALID,1000.13,VALID,0,VALID,82.9035,VALID,0.112286,VALID,25.1631,VALID,53,VALID,1.42969,
2010-04-14, 02:15:04,VALID,1000.09,VALID,0,VALID,82.6212,VALID,0,VALID,25.1631,VALID,69,VALID,2.03125,
2010-04-14, 02:16:04,VALID,1000.12,VALID,0,VALID,82.934,VALID,0.112286,VALID,25.1826,VALID,48,VALID,1.89375,
2010-04-14, 02:17:04,VALID,1000.07,VALID,0,VALID,83.2086,VALID,0,VALID,25.1826,VALID,44,VALID,1.51992,
2010-04-14, 02:18:04,VALID,1000.02,VALID,0,VALID,83.4375,VALID,0,VALID,25.1436,VALID,43,VALID,1.54141,
2010-04-14, 02:19:04,VALID,1000.01,VALID,0,VALID,83.7656,VALID,0,VALID,25.1045,VALID,50,VALID,1.47187,
2010-04-14, 02:20:04,VALID,999.999,VALID,0,VALID,83.9182,VALID,0,VALID,25.046,VALID,48,VALID,1.27773,
2010-04-14, 02:21:04,VALID,999.996,VALID,0,VALID,84.1929,VALID,0,VALID,25.046,VALID,48,VALID,1.47461,
2010-04-14, 02:22:04,VALID,1000.02,VALID,0,VALID,84.025,VALID,0.112286,VALID,25.0069,VALID,43,VALID,2.03789,
2010-04-14, 02:23:04,VALID,999.983,VALID,0,VALID,84.1013,VALID,0,VALID,25.0069,VALID,48,VALID,2.13359,
2010-04-14, 02:24:04,VALID,999.969,VALID,0,VALID,83.7656,VALID,0,VALID,25.0246,VALID,41,VALID,1.91641,
2010-04-14, 02:25:04,VALID,999.97,VALID,0,VALID,83.8648,VALID,0,VALID,25.085,VALID,56,VALID,2.42422,
2010-04-14, 02:26:04,VALID,999.913,VALID,0,VALID,83.6969,VALID,0,VALID,25.1241,VALID,48,VALID,2.56055,
2010-04-14, 02:27:04,VALID,999.94,VALID,0,VALID,83.613,VALID,0,VALID,25.1631,VALID,53,VALID,2.50859,
2010-04-14, 02:28:04,VALID,999.933,VALID,0,VALID,83.4528,VALID,0,VALID,25.1826,VALID,41,VALID,2.0957,
2010-04-14, 02:29:04,VALID,999.948,VALID,0,VALID,83.7885,VALID,0,VALID,25.1826,VALID,40,VALID,1.98555,
2010-04-14, 02:30:04,VALID,999.941,VALID,0,VALID,84.1776,VALID,0,VALID,25.1631,VALID,41,VALID,1.97461,
2010-04-14, 02:31:04,VALID,999.984,VALID,0,VALID,84.4828,VALID,0,VALID,25.1045,VALID,40,VALID,1.74844,
2010-04-14, 02:32:04,VALID,999.986,VALID,0,VALID,84.2844,VALID,0,VALID,25.0674,VALID,41,VALID,2.9082,
2010-04-14, 02:33:04,VALID,999.975,VALID,0,VALID,84.4141,VALID,0,VALID,25.0674,VALID,48,VALID,2.49414,
2010-04-14, 02:34:04,VALID,999.984,VALID,0,VALID,84.5515,VALID,0,VALID,25.1064,VALID,42,VALID,2.49844,
2010-04-14, 02:35:04,VALID,999.975,VALID,0,VALID,84.8032,VALID,0,VALID,25.0869,VALID,40,VALID,2.15469,
2010-04-14, 02:36:04,VALID,999.946,VALID,0,VALID,84.5743,VALID,0,VALID,25.0869,VALID,50,VALID,2.98672,
2010-04-14, 02:37:04,VALID,999.962,VALID,0,VALID,84.788,VALID,0,VALID,25.1064,VALID,49,VALID,2.09648,
2010-04-14, 02:38:04,VALID,999.948,VALID,0,VALID,84.6201,VALID,0,VALID,25.0869,VALID,52,VALID,2.38477,
2010-04-14, 02:39:04,VALID,999.936,VALID,0,VALID,84.4904,VALID,0,VALID,25.1064,VALID,53,VALID,2.99102,
2010-04-14, 02:40:04,VALID,999.917,VALID,0,VALID,84.17,VALID,0,VALID,25.1455,VALID,63,VALID,2.4418,
2010-04-14, 02:41:04,VALID,999.917,VALID,0,VALID,84.3378,VALID,0,VALID,25.165,VALID,63,VALID,1.91562,
2010-04-14, 02:42:04,VALID,999.874,VALID,0,VALID,84.5667,VALID,0,VALID,25.165,VALID,52,VALID,2.32578,
2010-04-14, 02:43:04,VALID,999.909,VALID,0,VALID,84.3683,VALID,0,VALID,25.165,VALID,62,VALID,2.09141,
2010-04-14, 02:44:04,VALID,999.906,VALID,0,VALID,84.3302,VALID,0,VALID,25.1845,VALID,52,VALID,1.96328,
2010-04-14, 02:45:04,VALID,999.923,VALID,0,VALID,84.1166,VALID,0,VALID,25.1845,VALID,61,VALID,2.1832,
2010-04-14, 02:46:04,VALID,999.955,VALID,0,VALID,84.1852,VALID,0,VALID,25.2255,VALID,49,VALID,1.81523,
2010-04-14, 02:47:04,VALID,999.957,VALID,0,VALID,83.7503,VALID,0,VALID,25.2217,VALID,64,VALID,2.38008,
2010-04-14, 02:48:04,VALID,999.978,VALID,0,VALID,83.9334,VALID,0,VALID,25.2607,VALID,68,VALID,1.7,
2010-04-14, 02:49:04,VALID,999.965,VALID,0,VALID,83.6664,VALID,0,VALID,25.2802,VALID,59,VALID,1.88398,
2010-04-14, 02:50:04,VALID,999.954,VALID,0,VALID,83.4757,VALID,0,VALID,25.2997,VALID,65,VALID,1.62969,
2010-04-14, 02:51:04,VALID,999.931,VALID,0,VALID,83.8877,VALID,0,VALID,25.2997,VALID,69,VALID,1.3207,
2010-04-14, 02:52:04,VALID,999.897,VALID,0,VALID,83.9258,VALID,0,VALID,25.2802,VALID,73,VALID,1.45117,
2010-04-14, 02:53:04,VALID,999.88,VALID,0,VALID,83.6359,VALID,0,VALID,25.2802,VALID,69,VALID,1.60938,
2010-04-14, 02:54:04,VALID,999.88,VALID,0,VALID,83.674,VALID,0,VALID,25.2802,VALID,90,VALID,2.16758,
2010-04-14, 02:55:04,VALID,999.886,VALID,0,VALID,82.9492,VALID,0,VALID,25.2997,VALID,87,VALID,1.87344,
2010-04-14, 02:56:04,VALID,999.899,VALID,0,VALID,83.0942,VALID,0,VALID,25.3778,VALID,94,VALID,2.02266,
2010-04-14, 02:57:04,VALID,999.932,VALID,0,VALID,82.8195,VALID,0,VALID,25.4754,VALID,87,VALID,2.38945,
2010-04-14, 02:58:04,VALID,999.92,VALID,0,VALID,82.1634,VALID,0,VALID,25.5359,VALID,100,VALID,3.04609,
2010-04-14, 02:59:04,VALID,999.948,VALID,0,VALID,82.3541,VALID,0,VALID,25.5535,VALID,97,VALID,2.27891,
2010-04-14, 03:00:04,VALID,999.939,VALID,0,VALID,82.5143,VALID,0,VALID,25.5535,VALID,109,VALID,2.85,
2010-04-14, 03:01:04,VALID,999.921,VALID,0,VALID,82.3923,VALID,0,VALID,25.534,VALID,106,VALID,2.58789,
2010-04-14, 03:02:04,VALID,999.937,VALID,0,VALID,82.4762,VALID,0,VALID,25.5145,VALID,112,VALID,2.14961,
2010-04-14, 03:03:04,VALID,999.92,VALID,0,VALID,82.8653,VALID,0,VALID,25.5555,VALID,101,VALID,1.96641,
2010-04-14, 03:04:04,VALID,999.93,VALID,0,VALID,82.5143,VALID,0,VALID,25.5145,VALID,103,VALID,2.35938,
2010-04-14, 03:05:04,VALID,999.94,VALID,0,VALID,82.4152,VALID,0,VALID,25.575,VALID,101,VALID,2.57031,
2010-04-14, 03:06:04,VALID,999.929,VALID,0,VALID,82.1329,VALID,0,VALID,25.5926,VALID,98,VALID,2.99414,
2010-04-14, 03:07:04,VALID,999.946,VALID,0,VALID,82.2778,VALID,0,VALID,25.6336,VALID,104,VALID,2.73984,
2010-04-14, 03:08:04,VALID,999.955,VALID,0,VALID,82.316,VALID,0,VALID,25.6316,VALID,102,VALID,2.69414,
2010-04-14, 03:09:04,VALID,999.953,VALID,0,VALID,82.438,VALID,0,VALID,25.6121,VALID,112,VALID,2.575,
2010-04-14, 03:10:04,VALID,999.987,VALID,0,VALID,82.8043,VALID,0,VALID,25.6121,VALID,105,VALID,2.18867,
2010-04-14, 03:11:04,VALID,999.974,VALID,0,VALID,82.9798,VALID,0,VALID,25.5535,VALID,112,VALID,2.32148,
2010-04-14, 03:12:04,VALID,999.955,VALID,0,VALID,83.14,VALID,0,VALID,25.575,VALID,101,VALID,1.98477,
2010-04-14, 03:13:04,VALID,999.926,VALID,0,VALID,83.201,VALID,0,VALID,25.534,VALID,87,VALID,2.13477,
2010-04-14, 03:14:04,VALID,999.939,VALID,0,VALID,83.1323,VALID,0.112286,VALID,25.534,VALID,87,VALID,2.40078,
2010-04-14, 03:15:04,VALID,999.932,VALID,0,VALID,83.1018,VALID,0,VALID,25.4949,VALID,86,VALID,2.83867,
2010-04-14, 03:16:04,VALID,999.922,VALID,0,VALID,82.9111,VALID,0,VALID,25.534,VALID,89,VALID,2.55352,
2010-04-14, 03:17:04,VALID,999.988,VALID,0,VALID,82.8958,VALID,0,VALID,25.5555,VALID,85,VALID,2.5375,
2010-04-14, 03:18:04,VALID,999.974,VALID,0,VALID,83.1629,VALID,0,VALID,25.5359,VALID,80,VALID,2.36133,
2010-04-14, 03:19:04,VALID,1000.05,VALID,0,VALID,82.9492,VALID,0,VALID,25.5359,VALID,86,VALID,2.51133,
2010-04-14, 03:20:04,VALID,1000.06,VALID,0,VALID,83.2392,VALID,0,VALID,25.5359,VALID,90,VALID,1.74648,
2010-04-14, 03:21:04,VALID,1000.1,VALID,0,VALID,83.2315,VALID,0,VALID,25.5379,VALID,77,VALID,1.4207,
2010-04-14, 03:22:04,VALID,1000.12,VALID,0,VALID,83.2849,VALID,0,VALID,25.5183,VALID,78,VALID,1.51758,
2010-04-14, 03:23:04,VALID,1000.09,VALID,0,VALID,82.8043,VALID,0,VALID,25.5164,VALID,88,VALID,2.04961,
2010-04-14, 03:24:04,VALID,1000.08,VALID,0,VALID,82.438,VALID,0,VALID,25.5769,VALID,96,VALID,1.69766,
2010-04-14, 03:25:04,VALID,1000.04,VALID,0,VALID,82.4762,VALID,0,VALID,25.614,VALID,88,VALID,1.20117,
2010-04-14, 03:26:04,VALID,1000.05,VALID,0,VALID,82.3617,VALID,0,VALID,25.5945,VALID,90,VALID,1.44883,
2010-04-14, 03:27:04,VALID,1000.01,VALID,0,VALID,82.3999,VALID,0,VALID,25.5945,VALID,80,VALID,0.914453,
2010-04-14, 03:28:04,VALID,999.974,VALID,0,VALID,82.2015,VALID,0,VALID,25.616,VALID,77,VALID,1.43672,
2010-04-14, 03:29:04,VALID,999.968,VALID,0,VALID,82.4457,VALID,0,VALID,25.6336,VALID,92,VALID,1.25664,
2010-04-14, 03:30:04,VALID,999.978,VALID,0,VALID,82.0413,VALID,0,VALID,25.614,VALID,73,VALID,1.10898,
2010-04-14, 03:31:04,VALID,999.968,VALID,0,VALID,82.1557,VALID,0,VALID,25.6336,VALID,56,VALID,0.703125,
2010-04-14, 03:32:04,VALID,999.952,VALID,0,VALID,82.2702,VALID,0,VALID,25.6101,VALID,43,VALID,0.976953,
2010-04-14, 03:33:04,VALID,999.956,VALID,0,VALID,82.377,VALID,0,VALID,25.6121,VALID,31,VALID,1.02969,
2010-04-14, 03:34:04,VALID,999.938,VALID,0,VALID,82.4304,VALID,0,VALID,25.5926,VALID,18,VALID,0.832031,
2010-04-14, 03:35:04,VALID,999.908,VALID,0,VALID,82.5372,VALID,0,VALID,25.573,VALID,34,VALID,0.779688,
2010-04-14, 03:36:04,VALID,999.907,VALID,0,VALID,82.7738,VALID,0,VALID,25.5535,VALID,50,VALID,0.854297,
2010-04-14, 03:37:04,VALID,999.895,VALID,0,VALID,82.9645,VALID,0.112286,VALID,25.534,VALID,51,VALID,0.587109,
2010-04-14, 03:38:04,VALID,999.905,VALID,0,VALID,83.1171,VALID,0,VALID,25.5145,VALID,54,VALID,0.48125,
2010-04-14, 03:39:04,VALID,999.914,VALID,0,VALID,83.0255,VALID,0,VALID,25.4559,VALID,58,VALID,0.755469,
2010-04-14, 03:40:04,VALID,999.929,VALID,0,VALID,83.2849,VALID,0.112286,VALID,25.4754,VALID,92,VALID,0.578906,
2010-04-14, 03:41:04,VALID,999.948,VALID,0,VALID,82.2702,VALID,0,VALID,25.4949,VALID,89,VALID,2.03633,
2010-04-14, 03:42:04,VALID,1000.02,VALID,0,VALID,82.377,VALID,0,VALID,25.5535,VALID,79,VALID,1.63945,
2010-04-14, 03:43:04,VALID,1000.08,VALID,0,VALID,82.4991,VALID,0.112286,VALID,25.5516,VALID,92,VALID,1.40313,
2010-04-14, 03:44:04,VALID,1000.09,VALID,0,VALID,82.4533,VALID,0,VALID,25.5535,VALID,86,VALID,1.60977,
2010-04-14, 03:45:04,VALID,1000.15,VALID,0,VALID,82.316,VALID,0.112286,VALID,25.534,VALID,88,VALID,1.74922,
2010-04-14, 03:46:04,VALID,1000.15,VALID,0,VALID,82.377,VALID,0,VALID,25.534,VALID,102,VALID,1.31484,
2010-04-14, 03:47:04,VALID,1000.2,VALID,0,VALID,82.6669,VALID,0,VALID,25.5359,VALID,118,VALID,1.05391,
2010-04-14, 03:48:04,VALID,1000.21,VALID,0,VALID,83.056,VALID,0,VALID,25.5164,VALID,135,VALID,1.24531,
2010-04-14, 03:49:04,VALID,1000.21,VALID,0,VALID,83.2468,VALID,0,VALID,25.4559,VALID,147,VALID,1.29648,